Chicago DuPage, IL

8:44 PM CST on November 22, 2017 (GMT -0600)
Du Page

Weather History for KDPA - March, 2013

Change the Weather History Date:

Saturday, March 2, 2013

  Actual Average Record
Temperature  
Mean Temperature 21 °F 33 °F  
Max Temperature 30 °F 42 °F 56 °F (2008)
Min Temperature 12 °F 24 °F -2 °F (2014)
Degree Days  
Heating Degree Days 44 32  
Month to date heating degree days 83 65  
Since 1 July heating degree days 4811 4820  
Cooling Degree Days 0 0  
Month to date cooling degree days 0 0  
Year to date cooling degree days 0 0  
Moisture  
Dew Point 16 °F    
Average Humidity 71    
Maximum Humidity 81    
Minimum Humidity 56    
Precipitation  
Precipitation T in 0.07 in 0.41 in (2002)
Month to date precipitation T 0.15  
Year to date precipitation 4.47 2.88  
Sea Level Pressure  
Sea Level Pressure 30.19 in    
Wind  
Wind Speed 10 mph (NNW)    
Max Wind Speed 17 mph    
Max Gust Speed 21 mph    
Visibility 10 miles    
Events Snow    
T = Trace of Precipitation, MM = Missing Value Source: NWS Daily Summary

Daily Weather History Graph

Daily Weather History Graph

Search for Another Location

Airport or City:

Trip Planner

Search our weather history database for the weather conditions in past years. The results will help you decide how hot, cold, wet, or windy it might be!

Date:

Astronomy

Mar. 02, 2013 Rise Set
Actual Time 6:25 AM CST 5:44 PM CST
Civil Twilight 5:58 AM CST 6:12 PM CST
Nautical Twilight 5:25 AM CST 6:45 PM CST
Astronomical Twilight 4:53 AM CST 7:17 PM CST
Moon 11:30 PM CST (3/2) 8:48 AM CST (3/2)
Length of Visible Light 12h 14m
Length of Day
11h 18m
Waning Gibbous, 74% of the Moon is Illuminated
Mar 2
Waning Gibbous
Mar 4
Last Quarter
Mar 11
New
Mar 19
First Quarter
Mar 27
Full

Hourly Weather History & Observations

Time (CST) Temp. Windchill Dew Point Humidity Pressure Visibility Wind Dir Wind Speed Gust Speed Precip Events Conditions
12:52 AM 25.0 °F 13.1 °F 18.0 °F 75% 30.19 in 9.0 mi North 13.8 mph - 0.00 in Snow Light Snow
1:52 AM 25.0 °F 14.2 °F 19.0 °F 78% 30.19 in 9.0 mi North 11.5 mph - 0.00 in Snow Light Snow
2:52 AM 24.1 °F 14.4 °F 19.0 °F 81% 30.18 in 10.0 mi North 9.2 mph - 0.00 in   Overcast
3:52 AM 24.1 °F 13.1 °F 19.0 °F 81% 30.18 in 10.0 mi North 11.5 mph - N/A   Overcast
4:52 AM 24.1 °F 15.2 °F 19.0 °F 81% 30.18 in 10.0 mi North 8.1 mph - N/A   Overcast
5:01 AM 24.8 °F 16.1 °F 19.4 °F 80% 30.15 in 10.0 mi North 8.1 mph - N/A   Overcast
5:52 AM 24.1 °F 13.7 °F 18.0 °F 77% 30.19 in 10.0 mi North 10.4 mph - N/A   Overcast
6:52 AM 23.0 °F 13.1 °F 17.1 °F 78% 30.20 in 10.0 mi NNW 9.2 mph - N/A   Overcast
7:05 AM 23.0 °F 12.4 °F 17.6 °F 80% 30.17 in 10.0 mi North 10.4 mph - N/A   Overcast
7:52 AM 23.0 °F 11.7 °F 16.0 °F 74% 30.21 in 10.0 mi North 11.5 mph - N/A   Overcast
8:16 AM 23.0 °F 13.1 °F 15.8 °F 74% 30.18 in 10.0 mi NW 9.2 mph - N/A   Overcast
8:52 AM 23.0 °F 13.1 °F 16.0 °F 74% 30.21 in 10.0 mi NNW 9.2 mph - N/A   Overcast
9:52 AM 24.1 °F 14.4 °F 16.0 °F 71% 30.22 in 10.0 mi NW 9.2 mph - N/A   Overcast
10:52 AM 27.0 °F 18.0 °F 15.1 °F 61% 30.22 in 10.0 mi NNW 9.2 mph - N/A   Overcast
11:52 AM 28.9 °F 17.7 °F 15.1 °F 56% 30.20 in 10.0 mi North 15.0 mph - N/A   Partly Cloudy
12:52 PM 28.9 °F 19.2 °F 15.1 °F 56% 30.18 in 10.0 mi NW 11.5 mph - N/A   Clear
1:52 PM 28.0 °F 17.0 °F 17.1 °F 63% 30.18 in 10.0 mi WNW 13.8 mph - N/A   Mostly Cloudy
2:52 PM 27.0 °F 14.7 °F 16.0 °F 63% 30.18 in 10.0 mi NW 16.1 mph - N/A   Clear
3:52 PM 27.0 °F 16.1 °F 15.1 °F 61% 30.18 in 10.0 mi NW 12.7 mph - N/A   Clear
4:52 PM 26.1 °F 15.6 °F 14.0 °F 60% 30.19 in 10.0 mi NNW 11.5 mph - N/A   Clear
5:52 PM 23.0 °F 11.7 °F 12.0 °F 63% 30.20 in 10.0 mi NW 11.5 mph - N/A   Clear
6:52 PM 21.0 °F 9.3 °F 12.0 °F 68% 30.21 in 10.0 mi NNW 11.5 mph - N/A   Clear
7:52 PM 19.9 °F 10.1 °F 10.9 °F 68% 30.20 in 10.0 mi NNW 8.1 mph - N/A   Clear
8:52 PM 18.0 °F 11.1 °F 10.0 °F 71% 30.21 in 10.0 mi NNW 4.6 mph - N/A   Clear
9:52 PM 14.0 °F 5.1 °F 8.1 °F 77% 30.21 in 10.0 mi NW 5.8 mph - N/A   Clear